OpenBCM V1.08-5-g2f4a (Linux)

Packet Radio Mailbox

IZ3LSV

[San Dona' di P. JN]

 Login: GUEST





  
I0OJJ  > KEPS     26.04.25 14:25l 363 Lines 17240 Bytes #163 (0) @ AMSAT
BID : ORB25116.1
Read: GUEST
Subj: 2Line Orbital Elements 25116.AMSAT
Path: IZ3LSV<ED1ZAC<GB7CIP<VK2RZ<IR0AAB<I0OJJ<I0OJJ
Sent: 250426/0025z @:I0OJJ.ITA.EU [Rome] obcm1.08-6-g5b69

>From i0ojj%i0ojj.ita.eu@i0ojj.ampr.org Sat Apr 26 02:25:08 2025
Received: from i0ojj.ampr.org by i0ojj.ampr.org (JNOS2.0p.7) with SMTP
	id AA17030550 ; Sat, 26 Apr 2025 02:25:08 +0200
Message-Id: <ORB25116.1@i0ojj.bbs>
>From: i0ojj@i0ojj.ita.eu
X-JNOS-User-Port: Telnet   (i0ojj @ 44.134.109.10)  -> Sending message

From: I0OJJ @ I0OJJ.ITA.EU (Gustavo)
To:   KEPS @ AMSAT
X-Info: This message was generated automatically


QST de W1STR

AMSAT Orbital Elements for Amateur Satellites in TLE Format
>From Orbital Analysis Office
New England Sci-Tech STEM Education Center
Natick, MA April 26, 2025
To all radio amateurs


These element sets describe the orbits of various satellites 
in use by the amateur radio community. For details see:
www.amsat.org/keplerian-elements-formats/

A daily update of element sets is available at:
www.amsat.org/tle/daily-bulletin.txt
or without bulletin text:
www.amsat.org/tle/dailytle.txt


AO-07
1 07530U 74089B   25115.50077399 -.00000024  00000-0  14003-3 0  9995
2 07530 101.9948 119.2832 0012041 206.5798 308.6589 12.53688624308173
UO-11
1 14781U 84021B   25115.85504925  .00003417  00000-0  36670-3 0  9998
2 14781  97.7504  83.1236 0009251 118.3798 241.8353 14.89223604215982
AO-27
1 22825U 93061C   25115.39187154  .00000241  00000-0  10924-3 0  9996
2 22825  98.7403 176.7142 0007420 241.4146 118.6290 14.30780926647256
FO-29
1 24278U 96046B   25115.43067439  .00000007  00000-0  39812-4 0  9992
2 24278  98.5804  15.2574 0350924  99.5371 264.5601 13.53244869416662
NOAA-15
1 25338U 98030A   25115.86540212  .00000370  00000-0  16970-3 0  9999
2 25338  98.5392 142.0654 0011312 126.9438 233.2780 14.26950729402020
GO-32
1 25397U 98043D   25115.52181273  .00000204  00000-0  10837-3 0  9991
2 25397  98.9681  93.7081 0001393  26.4080 333.7169 14.24300720392091
ISS
1 25544U 98067A   25115.70727038  .00018435  00000-0  33883-3 0  9997
2 25544  51.6362 206.9769 0002498  72.1617 287.9644 15.49265374507021
NO-44
1 26931U 01043C   25115.51833851  .00000426  00000-0  19050-3 0  9997
2 26931  67.0508 244.3434 0005628 271.6558  88.3899 14.31707415230810
SO-50
1 27607U 02058C   25115.59782802  .00002473  00000-0  32623-3 0  9997
2 27607  64.5554 339.3724 0050957 344.6897  15.2663 14.81481782202776
CO-55
1 27844U 03031E   25115.49900709  .00000691  00000-0  32021-3 0  9991
2 27844  98.6778 124.3521 0008831 324.8789  35.1807 14.23953572132226
CO-57
1 27848U 03031J   25115.49674349  .00000585  00000-0  27773-3 0  9993
2 27848  98.6804 124.3893 0009106 343.0583  17.0290 14.23294163131951
RS-22
1 27939U 03042A   25115.83024824  .00002565  00000-0  41451-3 0  9990
2 27939  98.3242 284.2133 0012237 147.3052 351.6230 14.72212898154240
NOAA-18
1 28654U 05018A   25115.81771799  .00000344  00000-0  20554-3 0  9992
2 28654  98.8424 195.7964 0013162 254.6070 105.3649 14.13584087 27424
CO-58
1 28895U 05043F   25115.34986886  .00003614  00000-0  59869-3 0  9994
2 28895  98.2420 259.1569 0015821  91.6937 268.6081 14.70822016 40295
CO-65
1 32785U 08021C   25115.56956023  .00009789  00000-0  71400-3 0  9994
2 32785  97.7823  86.4264 0010516  19.4150 340.7474 15.03876340922319
AAUSAT2
1 32788U 08021F   25114.46015960  .00372436  00000-0  22434-2 0  9995
2 32788  97.5983 110.9578 0009210 130.7573 229.4493 15.76611273926212
CO-66
1 32791U 08021J   25115.42236543  .00020259  00000-0  10146-2 0  9998
2 32791  97.7251  94.5044 0003158   7.3465 352.7814 15.17415163923641
RS-30
1 32953U 08025A   25115.81656213  .00000028  00000-0  12771-3 0  9994
2 32953  82.5007 255.0142 0020302 142.0474 218.2041 12.43163110767970
NOAA-19
1 33591U 09005A   25115.81689967  .00000354  00000-0  21230-3 0  9996
2 33591  99.0000 180.2647 0014712 128.3325 231.9171 14.13348659835787
SRMSAT
1 37841U 11058D   25115.58566344  .00000591  00000-0  17757-3 0  9998
2 37841  19.9721  66.8213 0011562 289.9691 249.5804 14.11417988698749
ZACUBE-1
1 39417U 13066B   25115.85186664  .00007107  00000-0  62399-3 0  9995
2 39417  97.7770  73.1294 0043581 199.3583 160.5985 14.96166587618224
Delfi-N3xt
1 39428U 13066N   25115.50754293  .00010894  00000-0  11225-2 0  9996
2 39428  97.8365  33.6876 0086878 147.7757 212.8810 14.87615627612372
GOMX-1
1 39430U 13066Q   25115.82673156  .00003620  00000-0  56850-3 0  9995
2 39430  97.6894 337.2293 0132338 336.3322  23.1830 14.67447977608844
LO-74
1 39440U 13066AA  25115.40776042  .00008872  00000-0  90381-3 0  9999
2 39440  97.8467  60.3009 0061684 330.9094  28.8691 14.89519031614718
AO-73
1 39444U 13066AE  25115.57830895  .00012479  00000-0  94996-3 0  9992
2 39444  97.7740  77.3545 0041170 176.8932 183.2556 15.01552030616836
DTUSAT-2
1 40030U 14033W   25115.56653617  .00012175  00000-0  80452-3 0  9999
2 40030  98.0522  85.2418 0008313 198.8088 161.2832 15.07535097589614
EO-80
1 40032U 14033Y   25115.39000530  .00012780  00000-0  84258-3 0  9992
2 40032  98.0403  84.7743 0009656 142.4095 217.7808 15.07593599589568
LILACSAT-2
1 40908U 15049K   25115.85813893  .00019286  00000-0  52134-3 0  9993
2 40908  97.5094 135.1530 0008000 331.6891  28.3917 15.37741606531351
IO-86
1 40931U 15052B   25038.81889873  .00001817  00000-0  15548-3 0  9993
2 40931   6.0001 108.1159 0012838 187.7041 172.2889 14.78568669506492
Horyu-4
1 41340U 16012D   25115.57176069  .00034646  00000-0  99376-3 0  9997
2 41340  30.9972  74.1493 0008298 303.0386  56.9461 15.34632195505866
Lapan A3
1 41603U 16040E   25115.88767416  .00006405  00000-0  22605-3 0  9999
2 41603  97.1380 122.2575 0013028  72.7631 287.5035 15.29487056490952
CAS-2T
1 41847U 16066G   25115.48460989  .00001384  00000-0  20720-3 0  9995
2 41847  98.4214 190.3352 0345688 315.0825  42.2864 14.43361356444515
CAS-4B
1 42759U 17034B   25115.79263683  .00082293  00000-0  10733-2 0  9990
2 42759  43.0087 227.7032 0019666 335.0968  24.8944 15.57509708435602
CAS-4A
1 42761U 17034D   25115.79297661  .00087014  00000-0  10953-2 0  9996
2 42761  43.0121 225.2717 0020907 339.5959  20.4067 15.58397391435620
TechnoSat
1 42829U 17042E   25115.72971912  .00006227  00000-0  48584-3 0  9990
2 42829  97.3922 286.5838 0015644  73.7055 286.5889 15.01395603423992
AO-91
1 43017U 17073E   25115.16301881  .00014418  00000-0  75124-3 0  9995
2 43017  97.5334 347.0912 0173469 321.9638  36.9441 15.03930130402385
S-Net D
1 43186U 18014G   25115.28613043  .00009547  00000-0  57000-3 0  9997
2 43186  97.5663  18.6623 0010063  31.1963 328.9862 15.11286006395532
S-Net B
1 43187U 18014H   25115.48958636  .00009482  00000-0  56630-3 0  9996
2 43187  97.5667  18.8330 0010625  25.1584 335.0162 15.11271646395569
S-Net A
1 43188U 18014J   25115.28666943  .00009517  00000-0  56807-3 0  9997
2 43188  97.5677  18.7765 0010562  27.0511 333.1268 15.11291354395534
S-Net C
1 43189U 18014K   25115.29325183  .00009017  00000-0  53870-3 0  9999
2 43189  97.5692  18.7892 0011813  18.5644 341.6015 15.11265062394085
Ten-Koh
1 43677U 18084G   25115.44869568  .00004510  00000-0  36452-3 0  9995
2 43677  98.0912 285.9111 0008572  75.5413 284.6760 15.00319234353475
PO-101
1 43678U 18084H   25115.84163547  .00004915  00000-0  42010-3 0  9990
2 43678  98.1026 290.2714 0010197  78.3501 281.8864 14.98095379353680
QO-100
1 43700U 18090A   25115.53570233  .00000147  00000-0  00000-0 0  9996
2 43700   0.0131 204.0349 0001695 229.2268 359.1782  1.00271166 23481
MinXSS-2
1 43758U 18099A   25115.18574434  .00023848  00000-0  98086-3 0  9993
2 43758  97.5057 181.1182 0010540 318.3852  41.6582 15.24102858350059
AO-95
1 43770U 18099N   25115.12949792  .00016963  00000-0  87716-3 0  9992
2 43770  97.4960 173.7372 0010749  19.6395 340.5250 15.16277342349667
RANGE-A
1 43773U 18099R   25115.10737927  .00008303  00000-0  53412-3 0  9993
2 43773  97.4531 164.8307 0010865 356.9115   3.2045 15.08591497349362
MOVE-II
1 43780U 18099Y   25115.65284865  .00160224  00000-0  19748-2 0  9993
2 43780  97.4686 188.4300 0003717 241.7553 118.3329 15.59654100350767
SNUSat 2
1 43782U 18099AA  25115.40704525  .00012471  00000-0  69271-3 0  9995
2 43782  97.4647 171.1248 0010554 314.7530  45.2842 15.13808873349662
SnugLite
1 43784U 18099AC  25115.10335904  .00018148  00000-0  93116-3 0  9997
2 43784  97.4457 170.3012 0002165 334.5364  25.5762 15.16582829349741
ITASat 1
1 43786U 18099AE  25115.62886062  .00011258  00000-0  65240-3 0  9994
2 43786  97.4616 170.9800 0014279   8.4242 351.7225 15.12272994349666
EAGLET 1
1 43790U 18099AJ  25115.58728550  .00006613  00000-0  42607-3 0  9992
2 43790  97.4807 171.0380 0011525 351.5642   8.5392 15.08607240349286
ESEO
1 43792U 18099AL  25115.51560631  .00002781  00000-0  21402-3 0  9993
2 43792  97.4531 164.8302 0010550 328.7636  31.2962 15.02419680349056
CSIM
1 43793U 18099AM  25115.17497325  .00151051  00000-0  18712-2 0  9999
2 43793  97.4867 190.1182 0006266 251.9584 108.0989 15.59537794350531
JO-97
1 43803U 18099AX  25115.10351526  .00021669  00000-0  10175-2 0  9992
2 43803  97.4712 174.6143 0006064 308.6186  51.4505 15.19629793349866
Suomi 100
1 43804U 18099AY  25115.31103505  .00014909  00000-0  74737-3 0  9992
2 43804  97.4776 174.2386 0011037 308.1188  51.9049 15.17396633349832
ISAT
1 43879U 18111D   25115.73161194  .00030608  00000-0  11207-2 0  9999
2 43879  97.5989  29.1910 0009360  13.3615 346.7870 15.27937154344829
UWE-4
1 43880U 18111E   25115.73140117  .00023632  00000-0  96355-3 0  9990
2 43880  97.5931  27.9684 0013028  18.9693 341.2026 15.24371613344793
Sparrow
1 43881U 18111F   25115.74792168  .00032505  00000-0  11503-2 0  9991
2 43881  97.6125  31.9184 0009144  50.7997 309.4053 15.29044265344932
Prox-1
1 44339U 19036A   25115.36095046  .00017019  00000-0  22217-2 0  9993
2 44339  23.9977 358.6058 0007236 279.7082  80.2598 14.78871282311319
